Regional Weather Roundup
Issued by NWS

Home | Current Version | Previous Version | Text Only | Print | Product List | Glossary On
Versions: 1 2 3 4 5 6 7 8 9 10 11 12 13 14 15 16 17 18 19 20 21 22 23 24 25 26 27 28 29 30 31 32 33 34 35 36 37 38 39 40 41 42 43 44 45 46 47 48 49 50
000
ASHW40 PHFO 020830
RWRHI

WEATHER ROUNDUP FOR HAWAII
NATIONAL WEATHER SERVICE HONOLULU HI
1000 PM HST SAT AUG 01 2015

THIS IS AN AUTOMATED REPORT THAT HAS NOT BEEN QUALITY CONTROLLED.

NOTE..."FAIR" INDICATES FEW OR NO CLOUDS BELOW 12,000 FEET WITH NO
SIGNIFICANT WEATHER AND/OR OBSTRUCTIONS TO VISIBILITY.

* - THESE SITES REPORT LIMITED FIELDS

HIZ001>004-020900-
KAUAI-NIIHAU-

CITY           SKY/WX    TMP DP  RH WIND       PRES   REMARKS
LIHUE APT      PTCLDY    79  70  74 NE16      29.99R
PORT ALLEN*    NOT AVBL
POIPU*           N/A     79 N/A N/A NE10G23     N/A
PRINCEVILLE*     N/A     73 N/A N/A MISG        N/A
KOKOLE POINT*  NOT AVBL
MOLOAA DAIRY*  NOT AVBL
WAIMEA HTS*    NOT AVBL
PUU OPAE*      NOT AVBL
PUU LUA*       NOT AVBL
MAKAHA RIDGE*    N/A     72  63  73 E3G15       N/A
$$

HIZ005>011-020900-
OAHU-

CITY           SKY/WX    TMP DP  RH WIND       PRES   REMARKS
HONOLULU       PTCLDY    81  67  62 E7G20     29.94R
KALAELOA       CLEAR     78  65  63 E5        29.95R
KANEOHE MCB    PTCLDY    79  70  74 NE8       29.95R
WHEELER FIELD  PTCLDY    77  63  61 VRB2      29.99R
BELLOWS*         N/A    N/A N/A N/A NE20        N/A
KAHUKU*          N/A    N/A N/A N/A E12G21      N/A
WHEELER*       NOT AVBL
WAIANAE HARBOR NOT AVBL
DILLINGHAM*      N/A     77  66  69 MISG        N/A
KAHUKU TRN*      N/A     75  66  73 E14G25      N/A
KAWAILOA*        N/A     73  66  78 NE6G18      N/A
KII*             N/A     81  72  74 E18G25      N/A
MAKUA RANGE*     N/A     79  64  61 E13G23      N/A
OAHU FOREST NW NOT AVBL
SCHOFIELD BRK*   N/A     73  64  73 MISG        N/A
SCHOFIELD S*   NOT AVBL
WAIANAE VLY*   NOT AVBL
KUAOKALA*      NOT AVBL
HONOULIUULI*   NOT AVBL
MOKUOLOE IS*   NOT AVBL
PALEHUA*       NOT AVBL
WAIAWA PHB*    NOT AVBL
$$

HIZ012>013-020900-
MOLOKAI-

CITY           SKY/WX    TMP DP  RH WIND       PRES   REMARKS
MOLOKAI AIRPT  CLEAR     77  68  73 NE17G32   29.94R
KALAUPAPA      NOT AVBL
MAKAPULAPAI*   NOT AVBL
MOLOKAI 1*     NOT AVBL
PUU ALII*        N/A     61  61 100 CALM        N/A
$$

HIZ016-020900-
KAHOOLAWE-

CITY           SKY/WX    TMP DP  RH WIND       PRES   REMARKS
KAHOOLAWE*     NOT AVBL
HAKIOAWA*        N/A     74  67  77 MISG      30.36S
HONOKANAIA*      N/A     80  67  65 N10G25    29.93R
KANELOA*         N/A     77  68  73 N12G18    29.98S
KEALIALALO*      N/A     75  68  78 NE20G33   29.93S
LUA MAKIKA*    NOT AVBL
$$

HIZ014>015-020900-
LANAI-

CITY           SKY/WX    TMP DP  RH WIND       PRES   REMARKS
LANAI CITY     FAIR      73  67  81 NE17G39   29.98R
LANAI 1*       NOT AVBL
$$

HIZ017>028-020900-
MAUI-

CITY           SKY/WX    TMP DP  RH WIND       PRES   REMARKS
KAHULUI        MOCLDY    79  67  66 NE10      29.96R
KAPALUA-W MAUI NOT AVBL
HANA AIRPORT   CLOUDY    79  70  73 NE7       30.00S
HANA*            N/A     81 N/A N/A NE8         N/A
HALEAKALA SUMM   N/A     48  48 100 SE9G28      N/A
MAALAEA BAY*   NOT AVBL
HALEAKALA*     NOT AVBL
KAUPO GAP*     NOT AVBL
KULA 1*          N/A     57  55  91 E3          N/A
$$

HIZ023>026-020900-
BIG ISLAND OF HAWAII COAST AND LOWER SLOPES-

CITY           SKY/WX    TMP DP  RH WIND       PRES   REMARKS
KAILUA KONA    CLEAR     84  73  69 SE9       29.87R HX  90
HILO           CLOUDY    79  71  76 N3        29.96R
HONOKAA*       NOT AVBL
KAWAIHAE MWT*    N/A     84 N/A N/A SW7         N/A
KAWAIHAE*        N/A     82 N/A N/A SW5         N/A
SOUTH POINT*     N/A     75 N/A N/A NE14G21     N/A
UPOLU AIRPORT*   N/A    N/A N/A N/A NE22G31     N/A
KAMUELA*       CLOUDY    68  66  94 NE24      30.04R
HAKALAU*         N/A     58  58 100 NW1         N/A
KALOKO-HONOKO*   N/A     82  72  69 E5G12     29.87R
PALI 2*          N/A     70  64  83 N18G28      N/A
KEALAKOMO*       N/A     79  66  65 N18G26      N/A
KAUPULEHU*     NOT AVBL
KAPAPALA*        N/A     75  67  76 VRB5G17     N/A
LOWER KAHUKU*    N/A     68  68 100 N1          N/A
PUHE CS*         N/A     82  72  69 W2          N/A
PUHO CS*         N/A     80  72  75 E2          N/A
PTA KEAMUKU*     N/A     66  63  88 CALM        N/A
WAIKOLOA*      NOT AVBL
$$

HIZ027>028-020900-
BIG ISLAND OF HAWAII INTERIOR AND SUMMMITS-

CITY           SKY/WX    TMP DP  RH WIND       PRES   REMARKS
BRADSHAW FIELD CLEAR     60  56  85 SE2       30.27R
MK VISITOR CEN   N/A      0   0 100 MISG        N/A
MAUNA KEA*       N/A     43   7  22 N5          N/A
MAUNA LOA*       N/A     48  39  71 MISG        N/A
MAUNA LOA 1*   NOT AVBL
PTA KIPUKA*      N/A    N/A N/A N/A S3G17       N/A
PTA RANGE 17*    N/A     64  57  77 E13G23      N/A
PTA WEST*        N/A     82  79  89 NE1         N/A  HX  93
NENE CABIN*      N/A     57 N/A N/A NE6         N/A
AHUMOA*        NOT AVBL
PTA PORTABLE*  NOT AVBL
PUU MALI*        N/A     59  55  88 E15G25      N/A
$$

HIC003-020900-
NORTHWEST ISLANDS-

CITY           SKY/WX    TMP DP  RH WIND       PRES   REMARKS
MIDWAY ISLAND  CLEAR     79  73  83 CALM      29.98R
MIDWAY NOS*    NOT AVBL
FRENCH FRIGATE NOT AVBL
$$

PHZ110>124-180-020900-
BUOY REPORTS

STATION/POSITION TIME  TEMP    WIND        PRES    WAVE   SWELL
                       AIR SEA DIR/SP/G            HT/PER HT/DIR
                 (UTC) (F)     (DEG/KT/KT) (MB)    (FT/S) (FT/D)
BUOY 51001       NOT AVBL
BUOY 51101       0800   80 81   90/ 14/ 17 1016.2R   5/ 8   3/120
BUOY 51100       NOT AVBL
BUOY 51002       0800   79 82   40/ 17/ 23 1010.9R   8/ 8   5/ 80
BUOY 51003       0800   82 83   60/ 17/ 21 1013.0R   6/ 8   3
BUOY 51004       0703   81 81   70/ 17/ 19 1011.6    7/ 9   5/ 90
BARBERS PT BUOY  NOT AVBL
WAIMEA BAY BUOY  0800      81                N/A     5/ 6   2/ 60
KAILUA BAY BUOY  0800      80                N/A     9/11   3/ 90
LANAI BUOY       NOT AVBL
BARBERS PT 2     0800      82                N/A     4/ 7   2/190
PAUWELA MAUI     0800      79                N/A     9/ 9   2/ 90
HILO             NOT AVBL
KANEOHE BAY BUOY 0800      79                N/A     6/ 7   2/ 70
HANALEI KAUAI    0800      81                N/A     5/ 8   2/ 90
KAHULUI HARBOR   0800   79 81   50/  8/ 18 1014.5R
HONOLULU HARBOR  0800   81 81  130/  6/  9 1013.7R
KILO NALU        NOT AVBL
HILO HARBOR      0800   79 78   30/ 11/ 15 1014.3R
MOKUOLOE         0800   80 84   70/ 10/ 12 1015.0R
NAWILIWILI       0800   80 83   60/ 12/ 15 1015.0R
WHOTS BUOY       NOT AVBL
BUOY 51028       NOT AVBL
$$

......................KEY........................................
  SKY/WX - SKY CONDITIONS/PRESENT WEATHER
  TMP    - TEMPERATURE IN FAHRENHEIT
  DWPT   - DEWPOINT IN FAHRENHEIT
  RH     - RELATIVE HUMIDITY IN PERCENT
  WIND   - DIRECTION AND SPEED /MPH FOR ISLANDS...KTS FOR BUOYS/
  PRES   - MEAN SEA LEVEL PRESSURE IN INCHES OF HG
  VSB    - VISIBILITY IN MILES
  HX     - HEAT INDEX
  WCI    - WIND CHILL INDEX
  VRB    - VARIABLE WIND DIRECTION
  N/A    - NOT AVAILABLE



USA.gov is the U.S. government's official web portal to all federal, state and local government web resources and services.